This demonstration page uses our WeatherBlox Daily Observations layout. Learn more.

Left ArrowRight Arrow

39.01783, -85.05884

Hourly Observations for June 29, 2017

Temp ( °F °C ) Dew Point ( °F °C ) Humidity (%) Winds ( mph kmh ) Pressure ( in mb ) Visibility ( mi km ) Precip ( " mm )
12:52 am 00:52 Mostly Cloudy 66 18.9 58 14.4 75 75 S 6 9 30.02 1017 10 16 N/A
1:52 am 01:52 Mostly Cloudy 65 18.3 57 13.9 76 76 S 7 11 30.00 1016 10 16 N/A
2:52 am 02:52 Cloudy 63 17.2 57 13.9 81 81 S 8 13 29.99 1016 10 16 N/A
3:52 am 03:52 Cloudy 64 17.8 57 13.9 78 78 S 7 11 29.99 1016 10 16 N/A
4:52 am 04:52 Partly Cloudy 64 17.8 57 13.9 78 78 S 8 13 29.98 1015 10 16 N/A
5:52 am 05:52 Mostly Cloudy 65 18.3 57 13.9 76 76 S 8 13 30.00 1016 10 16 N/A
6:52 am 06:52 Mostly Cloudy 66 18.9 58 14.4 75 75 S 9 15 30.00 1016 10 16 N/A
7:52 am 07:52 Mostly Cloudy 69 20.6 61 16.1 76 76 S 9 15 30.00 1016 10 16 N/A
8:52 am 08:52 Mostly Cloudy 73 22.8 64 17.8 74 74 SSW 14 22 29.98 1015 10 16 N/A
9:52 am 09:52 Mostly Cloudy 75 23.9 66 18.9 74 74 SSW 15 24 29.97 1015 10 16 N/A
10:52 am 10:52 Mostly Cloudy 79 26.1 69 20.6 72 72 SSW 15 24 29.97 1015 10 16 N/A
11:52 am 11:52 Mostly Cloudy 81 27.2 70 21.1 69 69 SSW 16 26 29.97 1015 10 16 N/A
12:52 pm 12:52 Mostly Cloudy 83 28.3 70 21.1 65 65 SSW 17 28 29.96 1015 10 16 N/A
1:52 pm 13:52 Mostly Cloudy 83 28.3 69 20.6 63 63 SW 13 20 29.97 1015 10 16 N/A
2:52 pm 14:52 Mostly Cloudy 85 29.4 69 20.6 59 59 WSW 12 19 29.97 1015 10 16 N/A
3:52 pm 15:52 Partly Cloudy 86 30 68 20 55 55 SW 15 24 29.96 1015 10 16 N/A
4:52 pm 16:52 Mostly Sunny 85 29.4 70 21.1 61 61 SSW 17 28 29.95 1014 10 16 N/A
5:52 pm 17:52 Mostly Sunny 85 29.4 70 21.1 61 61 SW 13 20 29.94 1014 10 16 N/A
6:52 pm 18:52 Partly Cloudy 84 28.9 70 21.1 63 63 SSW 13 20 29.93 1014 10 16 N/A
7:52 pm 19:52 Partly Cloudy 83 28.3 70 21.1 65 65 SSW 13 20 29.92 1013 10 16 N/A
8:52 pm 20:52 Mostly Sunny 80 26.7 70 21.1 71 71 S 9 15 29.91 1013 10 16 N/A
9:52 pm 21:52 Mostly Clear 79 26.1 70 21.1 74 74 S 10 17 29.90 1013 10 16 N/A
10:52 pm 22:52 Clear 78 25.6 70 21.1 76 76 S 10 17 29.92 1013 10 16 N/A
11:52 pm 23:52 Mostly Cloudy 77 25 71 21.7 82 82 S 10 17 29.93 1014 10 16 N/A

Powered by AerisWeather